Flag for Romania Weather past 2 weeks in Bucharest, Romania

Now
37 °F

Low clouds.


Feels Like: 34 °F
Forecast: 34 / 40 °F
Wind: 5 mph from South

Location: Bucharest / Imh

Current Time: Jan 26, 2015 at 12:35:17 PM

Latest Report: Jan 26, 2015 at 12:00 PM


Visibility: N/A

Pressure: 30.18 "Hg

Humidity: 93%

Dew point: 36 °F

Location of BucharestLocation

Historic Weather in Bucharest — Graph

°F

Bucharest temperature yesterday

Maximum temperature yesterday: 37 °F (at 12:30 PM)
Minimum temperature yesterday: 34 °F (at 12:00 AM)
Average temperature yesterday: 35 °F

Past Weeks' High & Low Weather Summary

 TemperatureHumidityPressure
High54 °F (Jan 11, 2:30 PM)100% (Jan 12, 12:00 AM)30.39 "Hg (Jan 12, 12:00 AM)
Low19 °F (Jan 16, 7:30 AM)54% (Jan 11, 2:30 PM)29.65 "Hg (Jan 11, 8:00 PM)
Average34 °F94%30.06 "Hg
* Reported Jan 11 11:00 AM — Jan 26 11:30 AM, Bucharest, Weather by CustomWeather, © 2014

Note: Actual official high and low records may vary slightly from our data, if they occured in-between our weather recording intervals... More about our weather records

Advertising

Bucharest weather history for previous 24 hours

 ConditionsComfort  
Time TempWeatherWind HumidityBarometerVisibility
11:30 AM
Jan 26
37 °FLow clouds.3 mph93%30.18 "HgN/A
11:00 AM37 °FLow clouds.6 mph93%30.18 "HgN/A
10:30 AM37 °FDrizzle. Low clouds.5 mph93%30.18 "Hg6 mi
10:00 AM37 °FPartly sunny.2 mph93%30.18 "Hg5 mi
9:30 AM37 °FLow clouds.3 mph93%30.15 "Hg4 mi
9:00 AM36 °FPartly sunny.3 mph100%30.15 "Hg4 mi
8:30 AM36 °FDrizzle. Fog.3 mph100%30.15 "Hg2 mi
8:00 AM36 °FDrizzle. Fog.3 mph100%30.15 "Hg2 mi
7:30 AM36 °FDrizzle. Fog.3 mph100%30.15 "Hg2 mi
7:00 AM36 °FDrizzle. Mostly cloudy.3 mph100%30.12 "Hg5 mi
6:30 AM36 °FLow clouds.1 mph100%30.12 "HgN/A
6:00 AM36 °FLow clouds.5 mph100%30.12 "HgN/A
5:30 AM36 °FLow clouds.3 mph100%30.09 "HgN/A
4:30 AM36 °FMostly cloudy.3 mph100%30.09 "Hg5 mi
4:00 AM36 °FMostly cloudy.No wind100%30.09 "Hg4 mi
3:30 AM36 °FLow clouds.2 mph100%30.07 "Hg4 mi
3:00 AM36 °FFog.5 mph100%30.07 "Hg2 mi
2:30 AM36 °FMostly cloudy.2 mph100%30.09 "Hg2 mi
2:00 AM36 °FFog.2 mph100%30.07 "Hg2 mi
1:30 AM36 °FFog.No wind100%30.07 "Hg2 mi
1:00 AM36 °FFog.2 mph100%30.07 "Hg2 mi
12:30 AM36 °FFog.No wind100%30.07 "Hg2 mi
12:00 AM36 °FLow clouds.No wind100%30.07 "Hg4 mi
11:30 PM
Jan 25
36 °FLow clouds.1 mph100%30.07 "Hg4 mi
11:00 PM36 °FLow clouds.3 mph93%30.04 "Hg4 mi
10:30 PM36 °FLow clouds.3 mph100%30.04 "Hg4 mi
10:00 PM36 °FLow clouds.3 mph100%30.04 "Hg5 mi
9:30 PM36 °FDrizzle. Low clouds.3 mph100%30.04 "Hg4 mi
9:00 PM36 °FDrizzle. Low clouds.1 mph93%30.01 "Hg4 mi
8:30 PM36 °FLight rain. Low clouds.3 mph93%30.01 "Hg3 mi
8:00 PM36 °FLight rain. Mostly cloudy.5 mph93%30.01 "Hg4 mi
7:30 PM36 °FLight rain. Mostly cloudy.7 mph100%30.01 "Hg3 mi
7:00 PM36 °FLight rain. Mostly cloudy.5 mph100%29.98 "Hg4 mi
6:30 PM36 °FLight rain. Fog.6 mph93%29.98 "Hg3 mi
6:00 PM36 °FLight rain. Fog.3 mph93%29.98 "Hg2 mi
5:30 PM36 °FLight rain. Fog.3 mph100%29.98 "Hg3 mi
5:00 PM37 °FLight rain. Low clouds.6 mph93%29.95 "Hg4 mi
4:30 PM37 °FLight rain. Broken clouds.8 mph93%29.95 "Hg4 mi
4:00 PM37 °FMore clouds than sun.13 mph93%29.92 "HgN/A
3:30 PM37 °FPartly sunny.13 mph93%29.92 "HgN/A
3:00 PM37 °FBroken clouds.12 mph93%29.92 "HgN/A
2:30 PM37 °FPartly sunny.13 mph93%29.92 "HgN/A
2:00 PM37 °FBroken clouds.10 mph93%29.92 "HgN/A
1:30 PM37 °FBroken clouds.12 mph93%29.92 "HgN/A
1:00 PM37 °FLight rain. Partly sunny.14 mph93%29.92 "HgN/A
12:30 PM37 °FBroken clouds.10 mph93%29.92 "HgN/A
12:00 PM36 °FPartly sunny.13 mph100%29.92 "HgN/A
Weather by CustomWeather, © 2014

See weather overviewHow to use our weather pages